Weather History for Estherville, IA

Change the Weather History Date:

Friday, May 24, 2013

  Actual Average Record
Temperature  
Mean Temperature 57 °F 61 °F  
Max Temperature 73 °F 73 °F 87 °F (1989)
Min Temperature 41 °F 50 °F 35 °F (1949)
Degree Days  
Heating Degree Days 8 5  
Month to date heating degree days 251 207  
Since 1 July heating degree days 7823 7668  
Cooling Degree Days 0 2  
Month to date cooling degree days 29 19  
Year to date cooling degree days 29 21  
Growing Degree Days 7 (Base 50)    
Moisture  
Dew Point 43 °F    
Average Humidity 59    
Maximum Humidity 82    
Minimum Humidity 35    
Precipitation  
Precipitation 0.06 in 0.11 in 1.18 in (2012)
Month to date precipitation 3.34 2.94  
Sea Level Pressure  
Sea Level Pressure 30.25 in    
Wind  
Wind Speed 15 mph (SE)    
Max Wind Speed 29 mph    
Max Gust Speed 36 mph    
Visibility 9 miles    
Events Rain , Thunderstorm    
T = Trace of Precipitation, MM = Missing Value Source: NWS Daily Summary

Daily Weather History Graph

Daily Weather History Graph

Search for Another Location

Airport:

Trip Planner

Search our weather history database for the weather conditions in past years. The results will help you decide how hot, cold, wet, or windy it might be!

Date:

Astronomy

May. 24, 2013 Rise Set
Actual Time 5:46 AM CDT 8:46 PM CDT
Civil Twilight 5:12 AM CDT 9:20 PM CDT
Nautical Twilight 4:28 AM CDT 10:03 PM CDT
Astronomical Twilight 3:37 AM CDT 10:55 PM CDT
Moon 8:28 PM CDT (5/24) 5:20 AM CDT (5/24)
Length of Visible Light 16h 08m
Length of Day
14h 59m
Full, 100% of the Moon is Illuminated
May 24
Full
May 24
Full
May 31
Last Quarter
Jun 8
New
Jun 16
First Quarter

Hourly Weather History & Observations

Time (CDT) Temp. Windchill Dew Point Humidity Pressure Visibility Wind Dir Wind Speed Gust Speed Precip Events Conditions
12:52 AM 43.0 °F 40.3 °F 37.0 °F 80% 30.32 in 10.0 mi ENE 4.6 mph - N/A   Clear
1:52 AM 43.0 °F 38.2 °F 37.0 °F 80% 30.33 in 10.0 mi East 8.1 mph - N/A   Clear
2:52 AM 43.0 °F 38.2 °F 36.0 °F 76% 30.33 in 10.0 mi East 8.1 mph - N/A   Clear
3:52 AM 44.1 °F 39.5 °F 36.0 °F 73% 30.33 in 10.0 mi East 8.1 mph - N/A   Clear
4:52 AM 42.1 °F 36.6 °F 36.0 °F 79% 30.33 in 10.0 mi East 9.2 mph - N/A   Clear
5:52 AM 42.1 °F 36.1 °F 36.0 °F 79% 30.33 in 10.0 mi ESE 10.4 mph - N/A   Clear
6:52 AM 45.0 °F 39.7 °F 37.0 °F 74% 30.34 in 10.0 mi ESE 10.4 mph - N/A   Clear
7:52 AM 50.0 °F - 37.9 °F 63% 30.34 in 10.0 mi SE 15.0 mph - N/A   Clear
8:52 AM 54.0 °F - 39.9 °F 59% 30.34 in 10.0 mi SE 17.3 mph - N/A   Clear
9:52 AM 59.0 °F - 39.9 °F 49% 30.34 in 10.0 mi SSE 20.7 mph - N/A   Clear
10:52 AM 62.1 °F - 41.0 °F 46% 30.31 in 10.0 mi SSE 18.4 mph - N/A   Clear
11:52 AM 64.9 °F - 41.0 °F 42% 30.29 in 10.0 mi SSE 16.1 mph 26.5 mph N/A   Clear
12:52 PM 66.9 °F - 41.0 °F 39% 30.27 in 10.0 mi SE 17.3 mph 27.6 mph N/A   Clear
1:52 PM 70.0 °F - 41.0 °F 35% 30.24 in 10.0 mi SSE 25.3 mph 29.9 mph N/A   Clear
2:52 PM 70.0 °F - 42.1 °F 36% 30.20 in 10.0 mi South 19.6 mph 29.9 mph N/A   Overcast
3:52 PM 72.0 °F - 43.0 °F 35% 30.17 in 10.0 mi SSE 25.3 mph 32.2 mph N/A   Mostly Cloudy
4:52 PM 71.1 °F - 43.0 °F 36% 30.16 in 10.0 mi South 19.6 mph 28.8 mph N/A   Partly Cloudy
5:52 PM 66.9 °F - 48.9 °F 52% 30.23 in 4.0 mi SSW 6.9 mph - 0.03 in Rain , Thunderstorm Thunderstorms and Rain
6:01 PM 64.4 °F - 51.8 °F 64% 30.20 in 1.8 mi SSE 9.2 mph - 0.01 in Rain , Thunderstorm Light Thunderstorms and Rain
6:11 PM 62.6 °F - 50.0 °F 63% 30.19 in 4.0 mi SE 9.2 mph - 0.03 in Rain , Thunderstorm Light Thunderstorms and Rain
6:35 PM 62.6 °F - 51.8 °F 68% 30.18 in 10.0 mi SE 15.0 mph - 0.03 in   Mostly Cloudy
6:52 PM 62.1 °F - 52.0 °F 70% 30.19 in 10.0 mi SE 12.7 mph - 0.03 in   Overcast
7:52 PM 62.1 °F - 51.1 °F 67% 30.17 in 10.0 mi SE 17.3 mph - N/A   Overcast
8:52 PM 61.0 °F - 51.1 °F 70% 30.13 in 10.0 mi SE 18.4 mph - N/A   Overcast
9:52 PM 60.1 °F - 51.1 °F 72% 30.16 in 10.0 mi SSE 11.5 mph - N/A   Overcast
10:52 PM 60.1 °F - 50.0 °F 69% 30.19 in 10.0 mi South 16.1 mph - N/A   Overcast
11:52 PM 57.9 °F - 50.0 °F 75% 30.16 in 10.0 mi SSE 19.6 mph - N/A   Mostly Cloudy